Temperature
23 23 22 22 26 26 26 28 30 30 31 30 30 30 29 27 26 24 24 24 22 22 22 21 21 20 20 20 20 19 19 19 19 19 19 19 19 19 19 19 18 18 18 18 18 18 18 18 18
23 22 23 26 27 27 28 29 29 29 30 30 29 29 29 27 26 25 24 23 22 22 22 21 21 20 20 20 20 19 19 19 19 19 19 19 19 18 18 19 19 19 19 18 18 18 18 18 18
23 23 26 29 28 28 30 30 30 30 30 29 29 29 27 25 25 24 24 23 22 21 21 21 21 20 20 20 19 19 19 19 19 19 19 19 18 18 18 19 19 19 19 18 18 18 18 18 18
23 26 28 30 30 32 32 31 31 31 30 29 29 28 26 25 25 24 23 23 21 20 21 21 21 20 20 20 19 19 19 19 19 19 19 19 18 18 18 19 19 19 19 18 18 18 18 18 18
24 27 29 29 31 32 33 32 31 31 30 29 28 27 25 24 24 24 23 23 21 20 21 21 21 20 20 19 19 19 19 19 19 19 19 19 19 18 18 18 19 19 18 18 18 18 18 18 18
27 29 29 30 32 32 33 32 31 31 30 29 28 27 24 24 24 23 23 23 22 21 20 21 20 20 20 19 19 19 19 19 19 19 19 18 18 18 18 18 18 18 18 18 18 18 18 18 18
27 29 30 31 32 32 32 31 31 30 29 28 28 26 24 24 23 23 23 23 22 21 20 21 20 20 20 19 19 19 19 19 19 19 19 18 18 18 18 18 18 18 18 18 18 18 18 18 18
28 30 30 32 31 31 32 31 30 30 29 27 27 26 24 23 23 23 23 23 22 21 20 20 20 20 19 19 19 19 19 19 19 19 19 18 18 18 18 18 18 18 18 18 18 19 19 19 19
29 29 30 31 31 31 32 31 30 29 29 28 26 25 24 23 23 23 23 23 22 21 20 20 19 19 19 19 19 19 19 19 18 18 18 18 18 18 18 18 18 18 18 18 18 18 19 19 19
30 30 31 32 32 32 32 31 30 30 29 28 26 24 23 23 23 23 23 22 22 21 21 20 19 19 19 18 19 19 18 18 18 18 18 18 18 18 18 18 18 18 18 18 18 18 18 18 18
31 31 32 32 32 31 31 31 30 30 29 27 25 23 23 22 22 22 22 22 22 21 20 20 20 19 19 19 19 18 18 18 18 18 18 18 18 18 18 18 18 18 18 18 18 18 18 17 17
32 32 32 32 32 31 31 31 30 29 27 26 25 23 23 22 22 22 22 22 21 21 20 20 19 19 19 19 19 18 18 18 18 18 18 18 18 18 18 18 17 17 17 17 17 17 17 17 18
32 32 32 32 31 31 30 30 30 29 27 26 25 24 23 22 22 22 22 21 21 20 20 19 19 19 19 19 19 18 18 18 18 18 18 18 17 17 17 17 17 17 17 17 17 17 17 17 18
32 32 31 31 31 31 30 30 29 28 26 26 25 24 23 22 22 21 21 20 20 20 19 19 19 19 19 19 19 18 18 18 18 18 18 18 17 17 17 17 17 17 17 17 17 17 17 17 17
31 31 31 31 31 31 30 29 28 27 26 26 25 24 22 22 21 21 20 20 20 19 19 19 19 19 19 18 18 18 18 18 18 17 17 17 17 17 17 17 17 17 17 17 17 17 17 17 17
31 30 29 30 31 31 30 28 28 27 27 26 25 23 22 21 21 20 20 19 19 19 19 18 18 18 18 18 18 18 18 18 17 17 17 17 17 17 17 16 16 16 16 16 17 17 17 17 17
30 29 30 31 32 32 30 28 28 27 26 25 24 23 22 21 20 20 20 19 19 18 18 18 18 18 18 18 18 18 18 17 17 17 17 17 16 16 16 16 16 16 16 16 16 16 16 16 16
30 31 31 31 31 31 30 29 29 27 26 25 24 23 21 20 19 19 19 19 18 18 18 18 18 18 18 18 18 17 17 17 17 17 17 16 16 16 16 16 16 16 16 16 16 16 16 16 16
31 31 30 31 32 31 30 30 29 28 27 25 24 23 21 20 19 19 19 18 18 18 18 18 18 17 18 17 17 17 17 17 17 16 16 16 16 16 16 16 16 16 16 16 15 16 16 16 16
31 31 31 31 32 31 30 29 28 28 27 26 24 23 21 20 19 18 18 18 18 17 17 17 17 18 17 17 17 17 17 17 17 17 16 16 15 15 16 15 15 15 15 15 15 16 16 16 16
31 31 31 31 31 31 29 28 27 27 27 26 24 23 22 21 19 18 18 17 17 17 17 17 17 17 17 17 17 17 17 17 17 17 16 16 15 15 15 15 15 15 15 15 15 15 15 16 16
31 32 31 31 30 28 28 26 26 27 27 26 25 24 23 21 20 19 18 18 17 17 17 17 17 17 17 17 17 17 17 17 17 16 16 16 15 15 15 15 15 15 15 15 15 15 15 15 16
32 32 31 30 27 25 25 25 26 27 27 26 26 25 23 22 20 19 18 18 17 17 17 17 17 17 17 17 17 17 17 17 17 17 16 16 16 15 15 15 15 15 15 15 15 15 15 15 15
32 31 30 28 25 22 23 25 26 27 28 27 27 25 23 22 21 19 19 18 18 17 17 17 17 17 17 17 17 17 17 17 17 16 16 16 16 16 15 15 15 15 14 14 14 15 15 15 15
31 29 28 26 24 23 23 25 26 28 29 28 27 25 24 22 21 20 19 18 18 17 17 17 17 17 17 17 17 17 17 17 17 17 16 16 16 16 16 16 15 15 14 14 14 14 14 14 15
31 30 28 26 26 26 25 25 27 28 29 28 27 26 24 23 22 20 19 18 18 17 17 17 17 17 17 17 17 17 17 17 17 17 17 17 17 17 16 16 16 15 15 15 15 14 14 14 15
31 30 31 29 28 28 25 24 24 27 28 28 27 26 25 24 22 21 20 19 18 18 18 18 17 18 18 18 18 17 18 17 17 17 17 17 17 17 17 16 16 16 15 15 14 14 14 14 14
32 31 30 29 27 26 25 23 23 23 26 28 28 27 25 24 23 22 21 20 19 19 18 18 18 18 18 18 18 18 18 18 17 17 17 17 17 17 17 16 16 16 15 15 15 15 15 15 15
30 30 29 29 28 27 25 24 25 24 26 27 28 27 26 25 24 23 22 21 20 19 19 18 18 18 18 18 18 18 18 18 18 18 17 17 17 17 17 17 16 16 16 16 16 16 15 15 15
29 29 29 28 27 27 27 25 27 26 27 28 28 27 26 26 25 24 23 22 21 20 20 19 19 18 18 18 18 18 18 18 18 18 18 18 17 17 17 17 17 16 16 16 16 16 16 16 16
Wind_Speed
12 14 11 8 6 6 7 5 6 7 8 10 7 5 8 9 8 9 11 19 24 23 22 21 19 18 16 16 16 16 15 15 14 13 13 12 12 12 12 12 12 12 12 12 12 12 12 11 10
12 15 11 8 8 8 4 2 7 7 8 7 5 5 8 11 13 12 14 20 24 22 21 20 20 18 17 17 16 16 15 14 14 13 12 12 12 12 12 12 12 12 11 11 12 11 11 11 10
13 18 10 9 12 10 4 6 8 5 5 4 4 5 7 7 10 10 16 21 22 20 21 22 21 19 18 17 16 16 15 14 13 12 12 11 11 11 11 11 11 11 11 11 11 10 10 10 9
9 9 8 9 11 6 6 7 5 3 4 5 4 6 8 7 7 13 19 21 22 21 22 22 21 19 18 17 16 15 14 13 13 12 11 10 10 10 10 10 10 10 10 10 9 9 9 9 8
11 9 11 13 13 5 5 7 5 3 4 5 5 8 9 8 11 15 18 20 21 21 21 21 20 19 17 16 15 15 14 13 12 11 10 10 9 9 9 9 8 8 8 8 8 8 8 8 7
8 10 12 12 6 4 5 5 4 4 4 4 5 8 8 8 12 15 17 19 20 21 21 20 19 19 17 16 15 14 13 12 11 10 9 9 8 8 8 7 7 7 7 6 6 6 6 6 5
11 12 15 13 5 4 5 5 4 4 4 4 4 6 8 11 12 14 15 16 18 21 20 18 18 17 16 15 15 13 12 11 10 10 9 8 8 7 7 7 7 6 6 5 4 4 4 4 3
11 11 15 9 5 6 6 4 4 4 4 4 3 5 10 13 13 13 14 14 15 18 19 16 18 17 16 15 14 13 13 11 11 9 8 8 8 8 8 8 7 6 5 4 3 3 3 2 0
11 10 10 7 7 6 6 5 3 2 1 3 6 8 14 15 15 14 13 12 13 16 16 16 16 15 16 16 15 14 13 11 11 9 8 8 8 8 9 8 10 7 6 5 4 3 4 4 5
8 9 7 8 8 7 7 5 3 3 2 4 11 13 15 15 15 15 14 13 14 14 13 11 14 13 13 13 14 13 12 11 9 8 7 6 4 5 7 10 9 8 7 7 6 6 6 7 6
8 8 8 7 7 7 7 5 3 4 1 4 11 15 15 15 14 14 14 14 13 13 11 12 12 9 10 9 10 8 8 9 8 7 4 1 1 2 5 6 7 7 8 7 8 7 6 4 2
8 9 8 8 6 6 7 6 4 3 4 7 9 14 14 15 14 13 13 12 12 11 11 11 10 8 7 7 7 6 6 6 7 6 3 3 2 2 4 3 2 2 3 4 4 4 3 2 2
10 10 8 8 7 5 5 7 5 3 8 8 9 12 14 14 14 11 10 10 10 10 9 10 11 9 7 5 4 6 5 6 8 8 5 3 2 3 3 2 1 2 1 2 2 2 1 1 1
10 10 10 9 8 6 5 6 4 2 7 7 8 11 12 13 14 12 10 10 10 10 9 10 11 10 7 5 4 3 5 6 8 8 7 5 6 5 2 1 0 1 3 3 1 1 1 1 1
12 12 10 9 9 7 3 5 3 3 7 6 8 8 9 10 11 11 11 10 11 10 10 10 11 10 8 7 5 4 5 7 7 8 7 6 7 4 2 0 1 2 2 1 1 1 2 2 2
15 13 11 10 9 5 4 5 4 6 6 6 7 8 8 7 9 9 10 10 11 11 11 11 12 11 8 5 4 4 5 7 7 9 9 7 6 3 3 1 3 3 2 1 1 1 1 1 1
13 12 11 6 5 5 5 5 6 8 6 5 6 7 8 8 7 7 9 10 10 10 11 10 11 11 9 7 4 5 6 5 6 8 8 6 5 4 4 4 3 4 1 2 2 4 3 2 1
12 11 10 8 3 6 7 5 6 9 8 7 7 7 8 9 8 8 10 10 9 10 10 11 11 10 9 7 5 5 5 4 6 8 7 4 5 4 4 4 2 4 3 4 4 3 2 1 1
13 14 13 11 6 7 8 5 4 7 6 7 7 8 8 8 9 9 10 11 11 11 11 11 12 10 8 7 6 6 5 4 5 6 7 5 5 4 4 4 2 2 4 4 3 2 1 2 0
14 15 13 10 8 8 8 3 3 6 7 7 9 9 10 10 11 12 11 11 12 11 11 11 12 11 8 6 5 4 5 4 5 5 6 5 4 3 3 3 1 4 3 3 2 2 3 1 2
14 13 13 13 13 9 8 3 4 6 7 8 8 9 10 12 13 13 13 12 11 12 12 12 12 11 9 8 5 5 3 2 5 6 5 4 4 4 5 3 3 2 1 3 2 3 2 3 1
14 12 14 15 14 9 7 3 4 7 8 9 9 10 11 12 14 14 14 13 13 13 12 12 11 10 8 8 7 8 6 5 6 5 6 5 4 5 5 4 3 3 3 3 0 3 3 2 2
14 14 15 14 10 9 8 5 5 7 8 9 9 11 11 12 13 14 14 13 13 13 12 12 11 10 9 8 7 7 5 4 5 5 8 6 5 4 5 5 3 0 2 4 4 3 4 3 4
13 14 15 8 3 3 11 8 2 3 6 10 10 11 11 12 13 13 13 12 11 12 11 12 12 11 10 8 8 7 5 4 5 6 8 5 5 5 6 6 4 2 2 3 2 1 1 3 4
11 11 10 7 2 4 9 6 3 5 6 9 12 13 12 12 13 14 14 14 13 13 13 13 13 12 11 9 8 8 6 5 5 5 6 6 5 6 8 6 5 3 2 3 2 2 0 0 1
11 12 10 10 10 5 1 2 2 6 7 10 13 13 13 13 14 14 14 14 14 14 14 14 14 12 11 10 8 7 7 5 5 6 5 6 4 5 9 7 6 5 5 5 4 3 4 3 2
11 11 11 11 14 8 1 1 3 5 4 9 13 14 13 13 14 15 15 15 15 15 14 14 14 12 12 11 9 8 7 7 5 6 6 5 4 4 9 8 7 6 6 4 4 4 4 4 4
12 10 9 8 8 8 1 1 2 4 5 6 11 13 13 13 14 15 15 15 15 15 14 14 14 12 11 11 10 10 9 8 7 6 7 6 5 4 8 8 8 7 7 6 5 5 5 5 4
9 10 8 7 8 8 5 1 6 9 7 7 10 12 14 14 15 15 15 15 15 15 15 13 13 12 12 11 10 9 10 10 9 8 7 6 6 6 6 7 7 8 8 8 7 7 6 7 7
10 11 9 8 7 8 7 2 2 2 2 4 8 10 10 11 14 15 15 15 15 16 16 14 13 13 12 11 11 10 9 10 10 10 9 8 7 7 7 8 8 8 9 8 8 9 9 8 8
Wind_Direction
222 235 234 248 246 250 278 301 9 19 58 58 58 58 66 63 76 102 131 132 123 125 128 128 126 124 123 122 121 122 121 119 117 115 112 109 106 103 100 95 92 88 86 84 81 79 74 70 68
244 245 242 250 258 272 283 24 50 44 59 66 63 57 71 67 82 113 129 124 124 128 134 131 129 127 126 125 124 124 123 122 120 117 114 111 107 104 101 99 95 92 89 85 82 79 74 69 67
257 263 262 251 252 272 308 52 63 59 80 80 77 63 64 77 91 116 127 129 128 130 130 130 133 131 129 128 127 125 126 125 123 121 118 114 110 105 103 100 97 94 91 88 84 79 74 68 64
256 248 244 261 277 314 7 40 55 61 97 98 86 85 79 76 101 123 134 135 129 131 131 135 135 133 132 131 129 128 128 127 125 123 120 116 112 109 106 104 100 97 93 90 86 80 74 68 61
248 260 252 267 280 321 27 29 6 24 66 79 91 96 87 87 111 131 142 137 135 136 133 138 137 135 134 134 133 132 130 129 128 127 125 121 117 114 111 109 106 102 97 92 89 83 76 70 60
260 262 271 277 291 9 37 45 7 39 69 88 111 113 100 114 126 143 148 142 139 136 133 137 139 138 138 137 136 135 134 133 132 131 128 127 125 124 121 117 115 109 104 101 97 91 80 70 58
264 282 281 289 333 12 37 34 6 25 57 84 100 105 121 127 135 146 145 140 140 135 135 142 144 142 141 140 140 139 138 138 137 136 135 137 140 141 140 136 130 122 116 114 112 105 93 77 54
264 286 294 303 350 23 40 30 47 28 58 73 83 110 134 137 144 144 144 141 135 135 140 148 150 147 149 146 145 144 143 144 145 146 154 162 166 167 164 159 150 143 139 138 139 141 138 136 191
263 271 291 348 5 3 10 7 27 88 124 103 89 102 134 144 148 150 150 142 136 138 144 154 149 153 155 152 151 152 153 156 159 164 178 189 194 180 177 159 153 160 165 172 179 189 194 208 220
254 275 321 1 353 342 340 337 315 257 199 120 115 122 140 151 157 161 159 153 148 144 145 147 146 155 157 153 153 162 163 162 176 165 182 202 184 171 157 153 162 171 181 186 195 208 219 230 225
276 299 328 336 342 332 317 311 296 293 344 105 137 142 150 156 164 169 165 162 155 149 145 145 149 149 146 139 151 155 151 155 154 135 162 153 115 121 119 147 166 187 196 198 189 210 231 234 258
276 295 304 306 323 308 308 312 309 351 77 101 129 147 157 165 171 176 168 163 152 148 144 143 132 119 118 127 134 140 139 140 124 117 82 76 76 55 74 65 71 217 191 167 169 207 232 313 340
269 276 281 289 288 297 312 300 298 69 108 121 138 156 162 168 171 177 167 151 147 147 142 133 122 112 104 99 132 128 121 127 123 120 80 28 68 60 59 53 27 311 91 150 166 178 178 249 279
297 305 307 300 300 288 287 299 302 95 125 141 155 164 171 171 169 169 162 157 152 150 143 133 125 121 119 116 102 109 124 121 112 96 79 32 63 62 28 347 37 18 57 61 62 137 157 193 195
292 289 285 279 264 264 291 298 265 165 152 158 164 165 169 173 169 165 164 159 152 148 145 140 134 132 136 138 144 136 134 118 104 103 88 49 61 55 1 275 145 46 43 137 178 179 175 181 177
284 276 272 260 254 237 249 280 175 177 172 171 166 163 166 168 169 162 160 153 148 150 150 155 148 141 140 137 129 109 104 108 110 114 102 78 70 33 325 22 56 7 306 182 151 149 122 122 135
282 272 270 257 236 263 263 278 169 166 173 178 171 165 163 163 163 158 155 147 146 149 150 146 137 139 138 131 116 102 92 97 108 100 94 88 73 28 15 61 39 312 313 40 40 72 41 28 44
295 307 315 322 276 275 276 261 176 169 177 174 172 169 169 170 166 161 151 146 145 144 138 138 136 135 134 130 125 118 117 128 115 103 97 93 94 46 356 107 39 332 47 61 63 56 74 332 297
305 307 312 308 295 288 286 267 175 165 176 170 172 175 173 167 162 155 154 155 150 144 146 147 144 145 147 144 148 142 148 154 132 124 121 113 91 81 2 67 110 25 64 48 43 24 243 222 200
292 298 302 301 297 290 292 280 162 164 176 173 172 174 173 165 163 164 163 161 155 151 150 152 151 154 159 153 151 149 146 161 129 110 124 131 126 137 118 44 62 73 99 65 40 40 331 303 116
293 299 308 310 307 301 298 262 182 181 176 164 167 167 168 169 169 169 167 164 160 157 159 164 160 157 161 152 151 142 134 160 135 137 150 148 139 105 63 62 38 3 148 106 26 4 351 353 358
295 307 313 311 309 312 301 274 201 183 179 167 169 166 168 167 165 167 167 169 167 165 161 154 155 158 158 159 165 170 178 179 159 155 147 151 165 157 141 125 75 355 50 99 264 79 349 332 319
298 310 307 314 325 331 307 278 188 179 173 169 166 164 162 164 166 167 169 169 168 164 160 154 159 165 163 174 178 191 187 171 150 144 139 160 169 183 168 150 142 218 61 82 56 59 4 348 356
294 300 297 308 329 305 274 264 166 168 163 157 157 155 155 158 160 162 164 161 162 160 161 163 165 168 171 182 180 198 203 178 155 158 155 181 173 184 184 170 168 205 154 132 117 72 86 30 19
279 287 296 303 289 231 259 269 140 129 122 138 146 148 151 155 156 160 164 165 167 168 170 169 168 172 178 185 185 194 199 191 179 185 177 199 189 182 178 175 168 197 168 165 163 189 37 149 36
270 276 289 305 304 292 209 323 84 99 106 126 136 140 151 157 160 165 168 167 170 174 174 172 173 176 181 186 189 193 193 201 198 206 211 203 229 185 161 162 169 196 193 196 178 225 199 183 211
268 276 291 288 291 301 87 79 15 11 120 131 136 143 154 159 160 166 168 170 172 175 177 176 175 178 184 188 187 194 199 217 216 196 213 213 204 177 155 166 177 190 201 213 185 228 239 172 202
257 278 295 297 306 310 8 84 162 246 233 164 148 151 154 159 161 163 168 173 175 178 178 177 175 179 184 188 190 197 201 211 217 216 210 213 200 199 156 171 182 192 195 200 215 230 223 216 222
261 260 267 289 296 306 313 143 187 202 208 182 158 153 158 164 164 164 169 173 175 177 177 179 177 180 187 193 196 205 196 204 209 216 219 211 202 192 181 185 192 198 201 198 203 230 235 214 220
263 259 255 257 279 290 302 112 131 186 156 163 146 143 151 162 162 165 167 169 174 177 178 181 183 187 191 194 196 205 203 200 205 210 210 208 205 202 197 198 204 209 209 204 204 217 233 229 224
Height
1504 1503 1503 1505 1502 1499 1499 1486 1476 1474 1475 1480 1482 1484 1487 1494 1499 1511 1510 1512 1514 1517 1523 1527 1531 1534 1537 1539 1541 1543 1545 1547 1548 1549 1550 1551 1552 1553 1553 1554 1555 1556 1557 1557 1558 1558 1559 1559 1560
1503 1504 1506 1502 1497 1501 1495 1482 1478 1479 1481 1483 1485 1487 1489 1496 1501 1506 1510 1514 1516 1519 1524 1528 1532 1535 1538 1540 1543 1545 1546 1548 1549 1550 1552 1553 1554 1554 1555 1556 1557 1557 1558 1559 1560 1560 1561 1561 1562
1503 1504 1504 1494 1493 1493 1486 1477 1477 1479 1482 1484 1487 1490 1494 1500 1504 1508 1512 1515 1518 1521 1524 1528 1532 1536 1539 1541 1544 1546 1547 1549 1550 1552 1553 1554 1555 1556 1557 1557 1558 1559 1560 1561 1561 1562 1563 1563 1564
1505 1503 1499 1489 1486 1476 1473 1474 1476 1479 1482 1485 1488 1492 1498 1504 1506 1509 1513 1516 1519 1522 1525 1529 1533 1537 1540 1542 1545 1547 1548 1550 1551 1553 1554 1555 1556 1557 1558 1559 1560 1560 1561 1562 1563 1564 1564 1565 1565
1505 1501 1493 1490 1481 1472 1470 1474 1477 1479 1482 1486 1489 1495 1500 1505 1507 1510 1514 1517 1520 1524 1526 1530 1534 1537 1540 1543 1545 1547 1549 1551 1552 1553 1555 1556 1557 1558 1559 1560 1561 1562 1562 1563 1564 1565 1566 1566 1567
1504 1494 1493 1489 1477 1471 1471 1475 1478 1481 1484 1488 1491 1495 1503 1507 1509 1512 1515 1518 1522 1524 1526 1531 1535 1538 1541 1544 1546 1548 1550 1551 1553 1554 1555 1557 1558 1559 1560 1561 1562 1563 1563 1564 1565 1566 1567 1568 1569
1502 1493 1489 1479 1476 1474 1474 1477 1481 1482 1486 1489 1492 1496 1503 1507 1510 1513 1516 1519 1522 1525 1527 1531 1535 1538 1541 1544 1546 1548 1550 1552 1553 1555 1556 1558 1559 1560 1561 1562 1562 1563 1564 1565 1566 1567 1567 1568 1569
1498 1493 1486 1477 1478 1477 1476 1479 1482 1485 1488 1491 1493 1497 1503 1507 1510 1514 1517 1520 1523 1525 1528 1532 1536 1539 1542 1544 1547 1548 1550 1552 1554 1555 1557 1558 1559 1560 1561 1562 1563 1564 1564 1565 1566 1567 1568 1569 1570
1495 1494 1489 1480 1479 1478 1477 1479 1483 1486 1489 1491 1494 1497 1502 1506 1510 1514 1517 1521 1524 1526 1530 1534 1537 1539 1542 1544 1547 1549 1550 1552 1554 1556 1557 1558 1559 1561 1562 1563 1563 1564 1565 1565 1566 1567 1568 1569 1570
1490 1491 1484 1477 1477 1478 1479 1480 1483 1484 1487 1491 1494 1499 1502 1506 1510 1513 1517 1520 1523 1527 1530 1534 1537 1540 1543 1545 1547 1549 1551 1553 1554 1556 1558 1559 1560 1561 1562 1563 1564 1564 1564 1565 1566 1567 1568 1569 1570
1485 1483 1479 1478 1478 1480 1480 1480 1481 1483 1486 1491 1494 1498 1501 1506 1509 1513 1516 1519 1523 1527 1530 1534 1537 1540 1543 1545 1547 1549 1552 1553 1555 1556 1558 1559 1560 1561 1562 1562 1563 1563 1564 1565 1565 1566 1567 1569 1570
1484 1481 1480 1479 1479 1480 1480 1480 1481 1483 1488 1491 1495 1498 1501 1505 1508 1511 1514 1518 1522 1525 1529 1533 1536 1539 1542 1545 1548 1550 1552 1553 1554 1556 1557 1558 1560 1560 1561 1562 1562 1563 1564 1564 1565 1566 1567 1568 1569
1482 1479 1479 1479 1478 1478 1480 1481 1481 1484 1489 1492 1495 1499 1501 1504 1507 1510 1512 1516 1520 1525 1528 1531 1535 1538 1541 1545 1548 1550 1552 1553 1554 1555 1556 1558 1558 1559 1559 1560 1561 1562 1563 1563 1564 1565 1566 1567 1568
1480 1479 1478 1478 1478 1478 1478 1480 1482 1485 1489 1492 1494 1497 1500 1502 1505 1508 1511 1514 1518 1523 1526 1529 1533 1537 1540 1544 1547 1549 1551 1553 1554 1554 1555 1556 1557 1557 1558 1559 1560 1561 1562 1562 1563 1564 1565 1566 1567
1481 1480 1479 1478 1477 1476 1477 1481 1481 1485 1488 1491 1493 1496 1498 1501 1504 1507 1510 1513 1517 1521 1524 1528 1531 1535 1540 1543 1547 1549 1551 1553 1553 1553 1554 1555 1556 1556 1557 1558 1559 1560 1561 1562 1563 1564 1564 1565 1566
1479 1481 1484 1476 1472 1472 1478 1485 1480 1483 1486 1489 1491 1494 1497 1499 1503 1505 1508 1512 1515 1518 1522 1527 1531 1534 1539 1543 1546 1549 1551 1552 1553 1553 1553 1554 1555 1555 1556 1558 1558 1559 1561 1562 1563 1563 1564 1565 1566
1481 1484 1480 1472 1467 1467 1472 1478 1478 1481 1484 1487 1490 1492 1495 1498 1501 1503 1506 1509 1513 1516 1521 1526 1529 1533 1538 1541 1545 1547 1550 1552 1553 1553 1553 1554 1554 1555 1556 1556 1557 1559 1560 1561 1562 1562 1563 1564 1565
1484 1476 1473 1472 1465 1465 1468 1471 1472 1477 1480 1484 1488 1491 1494 1496 1499 1502 1504 1508 1511 1515 1519 1524 1528 1533 1537 1541 1544 1547 1549 1551 1552 1552 1553 1554 1554 1555 1555 1556 1557 1558 1559 1560 1560 1561 1562 1563 1564
1471 1472 1474 1469 1460 1463 1465 1467 1470 1474 1478 1482 1486 1490 1493 1496 1498 1501 1504 1508 1511 1514 1519 1523 1527 1532 1536 1539 1543 1546 1549 1551 1552 1552 1552 1553 1554 1555 1555 1556 1557 1558 1558 1559 1560 1561 1562 1563 1564
1469 1473 1470 1464 1456 1459 1463 1466 1468 1471 1475 1479 1484 1487 1490 1494 1498 1500 1503 1507 1510 1513 1517 1521 1526 1530 1534 1539 1542 1545 1548 1550 1551 1552 1552 1553 1554 1555 1556 1556 1557 1557 1558 1558 1559 1560 1561 1563 1564
1469 1469 1467 1465 1457 1456 1464 1472 1470 1471 1473 1477 1481 1484 1488 1492 1496 1500 1503 1506 1509 1512 1516 1520 1525 1529 1533 1537 1541 1545 1547 1549 1551 1551 1552 1553 1554 1554 1555 1555 1556 1557 1558 1558 1559 1560 1561 1562 1564
1470 1460 1460 1461 1466 1474 1473 1487 1477 1469 1470 1473 1478 1482 1486 1490 1494 1498 1501 1505 1508 1511 1515 1519 1523 1528 1532 1536 1540 1543 1546 1548 1550 1550 1551 1552 1554 1554 1555 1555 1556 1557 1558 1558 1559 1559 1561 1562 1563
1463 1457 1459 1463 1473 1484 1484 1486 1478 1466 1470 1471 1474 1479 1483 1488 1492 1496 1500 1503 1507 1511 1515 1518 1523 1527 1531 1535 1539 1542 1545 1547 1549 1550 1551 1552 1553 1554 1555 1555 1556 1556 1557 1558 1558 1559 1560 1561 1561
1456 1459 1460 1466 1480 1507 1493 1487 1480 1466 1463 1466 1470 1476 1482 1487 1491 1495 1499 1503 1506 1510 1514 1518 1522 1526 1530 1534 1538 1541 1544 1546 1548 1549 1550 1551 1552 1553 1554 1555 1555 1556 1557 1557 1557 1558 1559 1560 1561
1459 1471 1483 1488 1497 1502 1486 1482 1474 1458 1456 1461 1467 1474 1481 1486 1490 1494 1498 1502 1505 1509 1513 1517 1521 1525 1529 1532 1536 1539 1542 1544 1546 1548 1549 1550 1552 1552 1553 1554 1554 1555 1556 1556 1557 1557 1559 1559 1560
1459 1465 1483 1496 1493 1485 1481 1486 1468 1457 1458 1461 1467 1473 1479 1484 1489 1493 1497 1500 1504 1508 1512 1516 1520 1523 1527 1531 1534 1537 1540 1543 1545 1546 1548 1549 1551 1552 1552 1553 1553 1554 1555 1556 1556 1557 1558 1558 1559
1458 1459 1455 1468 1468 1475 1485 1484 1476 1462 1461 1463 1467 1473 1478 1483 1487 1492 1496 1500 1503 1507 1511 1515 1518 1522 1526 1529 1532 1535 1538 1541 1543 1545 1546 1548 1550 1551 1550 1551 1552 1552 1553 1554 1555 1556 1557 1558 1558
1449 1452 1458 1468 1482 1487 1486 1491 1488 1478 1470 1464 1466 1471 1476 1481 1486 1490 1495 1499 1502 1506 1510 1514 1517 1520 1524 1527 1530 1533 1536 1539 1541 1543 1544 1546 1547 1549 1549 1549 1550 1551 1551 1552 1553 1554 1555 1556 1557
1454 1457 1459 1462 1465 1482 1491 1492 1471 1471 1466 1463 1464 1468 1474 1479 1483 1488 1493 1497 1501 1505 1509 1512 1516 1519 1522 1525 1528 1531 1533 1536 1538 1539 1541 1543 1544 1546 1547 1547 1548 1549 1550 1550 1551 1552 1554 1554 1555
1450 1454 1457 1471 1473 1469 1474 1482 1462 1462 1462 1461 1463 1467 1473 1477 1481 1486 1490 1495 1499 1503 1507 1510 1514 1517 1520 1523 1526 1529 1531 1533 1535 1536 1538 1539 1541 1542 1543 1544 1545 1546 1547 1548 1549 1550 1551 1552 1552